SPACEMOBILE-005

Last updated on Tue Oct 08 2024 00:02:04 GMT+0000 (Coordinated Universal Time)

1 61046U 24163B 24281.32914991 .00007659 00000+0 39205-3 0 9996 2 61046 52.9784 267.6949 0014273 41.6033 318.6043 15.17482754 3788
UTC large
Height (km)
Speed (km/s)
/
Latitude / Longitude
Inclination (degrees)
Orbital Period (minutes)
Azimuth
Elevation
Range (km)
Doppler Factor

Next 0 passes for location: London (51.5072 / 0.1276)

Sorry there are no passes over London.